Flag for Switzerland Weather past 2 weeks in Adliswil, Zurich, Switzerland

Now
55 °F

Overcast.


Feels Like: 55 °F
Forecast: 33 / 39 °F
Wind: 3 mph from South

Location: Zurich Town / Ville.

Current Time: Oct 21, 2014 at 9:28:25 AM

Latest Report: Oct 21, 2014 at 8:00 AM


Visibility: N/A

Pressure: 29.99 "Hg

Humidity: 96%

Dew point: 54 °F

Location of AdliswilLocation

Historic Weather in Adliswil — Graph

°F

Adliswil temperature yesterday

Maximum temperature yesterday: 67 °F (at 2:00 PM)
Minimum temperature yesterday: 55 °F (at 8:00 AM)
Average temperature yesterday: 61 °F

Past Weeks' High & Low Weather Summary

 TemperatureHumidityPressure
High72 °F (Oct 9, 5:00 PM)100% (Oct 18, 6:00 AM)30.27 "Hg (Oct 18, 6:00 AM)
Low50 °F (Oct 14, 7:00 AM)46% (Oct 9, 3:00 PM)29.75 "Hg (Oct 15, 5:00 PM)
Average58 °F86%29.95 "Hg
* Reported Oct 6 8:00 AM — Oct 21 8:00 AM, Adliswil, Weather by CustomWeather, © 2014

Note: Actual official high and low records may vary slightly from our data, if they occured in-between our weather recording intervals... More about our weather records

Advertising

Adliswil weather history for previous 24 hours

 ConditionsComfort  
Time TempWeatherWind HumidityBarometerVisibility
8:00 AM
Oct 21
55 °FOvercast.3 mph96%29.99 "HgN/A
7:00 AM56 °FCool.6 mph95%29.99 "HgN/A
6:00 AM56 °FCool.5 mph93%30.00 "HgN/A
5:00 AM56 °FCool.3 mph94%30.01 "HgN/A
4:00 AM57 °FCool.5 mph93%30.02 "HgN/A
3:00 AM58 °FCool.6 mph91%30.02 "HgN/A
2:00 AM58 °FCool.5 mph92%30.04 "HgN/A
1:00 AM58 °FCool.7 mph90%30.04 "HgN/A
12:00 AM58 °FCool.8 mph95%30.06 "HgN/A
11:00 PM
Oct 20
59 °FCool.7 mph93%30.07 "HgN/A
10:00 PM61 °FCool.6 mph88%30.05 "HgN/A
9:00 PM62 °FCool.1 mph89%30.04 "HgN/A
8:00 PM62 °FCool.1 mph84%30.05 "HgN/A
7:00 PM63 °FMild.1 mph81%30.04 "HgN/A
6:00 PM64 °FMild.1 mph73%30.03 "HgN/A
5:00 PM65 °FMild.2 mph73%30.04 "HgN/A
4:00 PM66 °FMild.2 mph67%30.06 "HgN/A
3:00 PM67 °FMild.3 mph64%30.07 "HgN/A
2:00 PM67 °FScattered clouds.3 mph64%30.10 "HgN/A
1:00 PM65 °FMild.2 mph67%30.13 "HgN/A
12:00 PM65 °FMild.3 mph67%30.14 "HgN/A
11:00 AM63 °FMild.2 mph68%30.16 "HgN/A
10:00 AM59 °FCool.No wind75%30.17 "HgN/A
9:00 AM56 °FCool.2 mph81%30.18 "HgN/A
Weather by CustomWeather, © 2014

See weather overviewHow to use our weather pages